Temp
77 77 77 76 76 76 76 77 78 78 77 76 75 73 73 73 74 73 72 72 71 71 71 71 70 71 70 70 70 69 67 67 65 67 69 70 69 68 70 71 71 69 69
78 78 78 77 77 76 76 77 78 78 77 75 73 72 71 72 74 73 72 72 71 70 71 70 70 72 69 69 68 68 68 68 66 64 66 68 67 68 68 67 70 72 70
75 79 78 77 77 77 77 78 78 78 74 74 73 73 73 73 72 72 71 70 71 71 70 70 69 69 68 67 66 67 67 68 67 65 65 67 68 67 67 67 68 68 70
74 75 77 77 80 79 80 79 79 75 73 73 74 73 71 69 68 68 69 69 70 70 70 70 69 68 67 66 66 66 66 66 65 65 65 65 65 67 65 65 65 67 67
72 74 77 78 80 78 78 77 76 74 74 73 72 69 68 67 67 66 68 69 69 68 69 69 68 70 71 69 67 66 66 68 64 63 63 63 63 62 62 63 63 64 65
72 72 78 77 76 75 73 73 74 74 72 71 70 68 66 68 66 69 69 69 68 68 68 67 67 66 66 68 69 69 68 65 63 62 61 62 63 63 64 63 63 64 62
76 76 77 77 75 74 72 73 73 72 71 70 68 66 65 65 66 67 70 67 67 67 65 65 66 67 64 64 68 69 68 69 68 64 61 61 63 61 61 64 61 63 63
74 76 76 76 74 73 74 72 73 71 71 68 66 65 64 64 65 66 70 67 66 65 65 64 63 62 60 63 66 66 66 66 66 66 64 63 64 64 61 61 60 59 65
74 75 75 74 73 73 72 73 71 71 70 68 68 66 65 64 62 64 68 68 66 65 65 64 63 62 60 63 64 64 63 64 66 65 66 65 66 66 65 60 58 56 55
73 73 74 74 76 75 74 72 70 70 69 69 68 67 66 65 60 63 65 68 66 65 64 64 64 61 58 60 63 62 62 62 64 65 65 67 65 65 65 61 58 55 54
74 74 74 75 76 77 73 71 69 68 67 67 67 67 66 65 63 62 65 68 67 66 65 65 65 60 57 57 59 63 62 61 65 64 62 63 63 62 61 59 58 58 57
74 74 73 74 77 74 71 69 69 68 67 65 65 64 65 65 61 62 63 64 66 67 66 66 65 58 58 57 61 61 62 64 63 62 61 61 61 60 60 59 59 58 58
74 73 73 73 72 71 70 68 67 67 66 66 65 64 65 66 66 63 63 64 65 67 66 65 64 59 59 62 64 63 64 63 62 61 60 61 61 61 61 59 59 58 57
72 72 71 71 70 70 70 69 67 66 66 67 67 67 65 65 65 65 66 65 64 65 65 68 66 64 63 64 64 67 65 64 63 61 61 61 61 61 60 59 57 56 55
73 72 70 71 71 70 68 69 73 69 67 69 69 69 66 65 67 62 61 65 63 59 61 70 70 66 64 63 64 64 64 63 62 62 62 60 60 60 59 59 57 55 54
72 72 71 71 70 70 65 61 54 53 53 51 57 66 63 58 52 47 46 47 49 50 64 64 67 66 63 63 63 63 62 64 62 62 63 65 64 60 59 59 57 55 53
74 73 73 72 71 69 67 66 67 62 54 51 50 53 56 56 47 45 45 46 47 52 63 63 64 65 63 63 63 62 62 62 63 62 62 65 65 65 63 59 58 56 54
73 66 71 71 70 70 70 69 67 66 65 65 55 50 48 46 45 45 45 49 59 56 60 62 63 65 64 64 63 63 62 61 61 62 65 63 66 65 62 61 58 58 57
73 73 72 72 71 71 73 71 70 69 68 67 62 54 50 47 47 47 47 63 65 65 64 67 64 65 65 65 63 63 63 62 62 62 65 65 67 66 64 63 60 56 57
73 70 70 73 76 75 73 71 72 71 69 68 67 67 57 54 61 63 62 63 63 66 67 72 66 66 66 65 64 63 63 62 61 62 63 67 66 62 66 65 64 63 58
74 72 72 72 72 73 72 71 74 73 74 70 72 69 59 66 67 67 67 67 66 67 70 71 67 67 67 66 65 64 64 63 63 62 63 63 64 66 66 66 66 65 64
73 72 72 73 73 74 72 72 70 73 77 72 73 70 52 67 68 69 68 69 70 70 71 70 69 69 69 68 67 66 65 64 64 63 63 63 63 66 64 67 65 65 64
73 73 73 73 74 72 73 73 73 72 73 73 74 72 69 71 70 70 72 73 70 71 71 71 70 69 69 70 70 71 68 65 66 65 64 63 63 63 67 67 66 65 64
75 74 74 73 73 73 76 73 73 69 75 76 74 73 72 72 70 71 72 73 72 72 72 72 71 73 72 70 70 72 70 69 68 67 67 65 63 61 63 67 66 66 64
75 75 73 72 72 73 73 73 74 78 78 76 75 74 72 74 71 73 74 73 72 72 73 74 73 72 73 72 71 72 63 53 66 59 67 66 65 64 62 63 67 63 64
75 75 73 71 70 72 72 74 75 74 75 75 78 76 73 74 73 74 74 73 72 72 73 72 73 74 74 73 73 62 41 43 58 48 66 65 64 63 62 63 65 65 67
MSLP
1010.96 1011.45 1011.87 1012.13 1012.27 1012.51 1012.73 1012.98 1013.04 1013.31 1013.41 1013.80 1013.98 1014.22 1014.33 1014.47 1014.38 1014.39 1014.42 1014.22 1014.20 1014.23 1014.30 1014.44 1014.35 1014.26 1014.22 1014.15 1014.05 1014.04 1014.07 1013.96 1014.12 1013.77 1013.38 1012.88 1012.70 1012.72 1012.58 1012.33 1011.83 1011.78 1011.75
1010.37 1010.65 1011.13 1011.67 1012.20 1012.36 1012.54 1012.84 1012.88 1013.01 1013.36 1013.32 1013.85 1014.47 1014.64 1014.58 1014.48 1014.47 1014.59 1014.51 1014.39 1014.26 1014.32 1014.28 1014.29 1014.10 1014.16 1014.10 1014.02 1014.05 1013.92 1013.83 1013.97 1013.84 1013.60 1013.10 1012.72 1012.28 1012.41 1012.50 1012.09 1011.71 1011.66
1010.16 1010.52 1010.84 1011.18 1011.68 1012.09 1012.14 1012.32 1012.43 1012.68 1012.96 1013.40 1013.71 1014.07 1014.47 1014.72 1014.73 1014.79 1014.85 1014.81 1014.59 1014.35 1014.30 1014.30 1014.35 1014.13 1014.13 1014.18 1014.16 1014.33 1014.34 1014.16 1014.03 1013.97 1013.86 1013.54 1013.14 1012.88 1012.65 1012.50 1012.15 1011.90 1011.60
1009.64 1009.99 1010.24 1010.73 1011.07 1011.45 1011.62 1011.84 1011.91 1012.41 1012.90 1012.78 1013.52 1014.13 1014.66 1014.90 1015.06 1015.17 1015.09 1014.84 1014.63 1014.46 1014.46 1014.53 1014.47 1014.54 1014.48 1014.39 1014.38 1014.37 1014.36 1014.21 1014.13 1014.11 1014.06 1013.94 1013.69 1013.34 1013.17 1013.00 1012.56 1012.08 1011.65
1008.95 1009.47 1009.80 1010.09 1010.52 1011.09 1011.42 1011.68 1012.13 1012.62 1012.94 1013.56 1013.72 1014.47 1014.85 1015.17 1015.44 1015.27 1015.09 1014.95 1014.87 1014.84 1014.89 1014.98 1014.92 1014.86 1014.55 1014.37 1014.37 1014.30 1014.35 1014.34 1014.38 1014.36 1014.47 1014.44 1014.33 1014.13 1013.83 1013.45 1013.02 1012.40 1011.96
1009.35 1009.41 1009.62 1010.22 1010.69 1011.33 1011.80 1012.03 1012.30 1012.77 1013.38 1013.75 1014.27 1014.77 1015.28 1015.66 1015.67 1015.33 1015.22 1015.26 1015.24 1015.10 1015.29 1015.34 1015.17 1015.11 1014.82 1014.64 1014.44 1014.31 1014.34 1014.52 1014.57 1014.68 1014.91 1014.89 1014.67 1014.48 1014.16 1013.78 1013.38 1012.85 1012.39
1009.45 1009.41 1009.70 1010.12 1010.90 1011.58 1011.85 1012.31 1012.64 1013.22 1013.76 1014.38 1014.79 1015.12 1015.65 1015.81 1015.62 1015.37 1015.40 1015.51 1015.31 1015.55 1015.78 1015.73 1015.63 1015.46 1015.15 1014.88 1014.60 1014.49 1014.55 1014.55 1014.56 1014.61 1014.97 1015.03 1014.72 1014.57 1014.26 1013.85 1013.62 1013.23 1013.01
1010.02 1009.83 1009.63 1010.26 1011.08 1011.65 1011.84 1012.70 1013.10 1013.65 1014.06 1014.59 1015.09 1015.55 1015.73 1015.77 1015.54 1015.49 1015.61 1015.71 1015.81 1016.03 1016.11 1016.04 1015.88 1015.72 1015.51 1015.24 1015.00 1015.03 1015.04 1014.90 1014.78 1014.74 1014.72 1014.79 1014.65 1014.53 1014.32 1014.17 1013.77 1013.38 1013.08
1009.79 1009.87 1010.13 1010.45 1011.20 1011.67 1012.07 1012.86 1013.53 1013.92 1014.43 1014.77 1015.24 1015.61 1015.63 1015.72 1015.57 1015.51 1015.57 1015.76 1015.99 1016.20 1016.27 1016.18 1016.05 1015.95 1015.82 1015.60 1015.43 1015.47 1015.38 1015.19 1014.82 1014.65 1014.64 1014.71 1014.66 1014.48 1014.29 1014.16 1014.00 1013.84 1013.65
1009.78 1009.75 1009.91 1010.65 1010.94 1011.68 1012.26 1013.07 1013.58 1014.01 1014.50 1014.95 1015.41 1015.39 1015.52 1015.66 1015.53 1015.32 1015.39 1015.67 1016.10 1016.39 1016.40 1016.29 1016.06 1015.98 1015.95 1015.84 1015.85 1015.83 1015.59 1015.47 1015.17 1014.98 1014.92 1014.82 1014.77 1014.83 1014.65 1014.60 1014.53 1014.42 1014.26
1009.57 1009.84 1010.13 1010.52 1011.01 1011.72 1012.45 1013.13 1013.80 1014.31 1014.78 1015.21 1015.23 1015.36 1015.45 1015.53 1015.53 1015.38 1015.30 1015.56 1015.85 1016.25 1016.34 1016.20 1016.01 1016.02 1015.99 1015.84 1015.85 1015.85 1015.80 1015.55 1015.32 1015.30 1015.25 1015.14 1015.13 1015.18 1015.17 1015.01 1014.91 1014.79 1014.62
1009.80 1010.23 1010.57 1010.72 1011.38 1012.14 1012.79 1013.56 1013.95 1014.51 1015.07 1015.21 1015.31 1015.50 1015.54 1015.56 1015.55 1015.48 1015.45 1015.48 1015.58 1015.95 1016.09 1015.97 1016.13 1016.03 1015.86 1015.84 1015.70 1015.68 1015.66 1015.53 1015.55 1015.57 1015.52 1015.45 1015.38 1015.45 1015.53 1015.48 1015.37 1015.23 1015.07
1010.08 1010.50 1010.94 1011.36 1011.95 1012.37 1013.06 1013.68 1014.21 1014.71 1015.02 1015.19 1015.33 1015.54 1015.59 1015.66 1015.64 1015.58 1015.65 1015.61 1015.65 1015.80 1015.78 1015.87 1015.67 1015.57 1015.61 1015.64 1015.62 1015.52 1015.56 1015.69 1015.77 1015.80 1015.77 1015.66 1015.56 1015.51 1015.65 1015.72 1015.68 1015.65 1015.58
1010.24 1010.97 1011.34 1011.83 1012.41 1012.70 1013.10 1013.57 1014.04 1014.55 1014.95 1015.15 1015.29 1015.48 1015.69 1015.89 1015.84 1015.68 1015.80 1015.82 1015.70 1015.62 1015.58 1015.41 1015.26 1015.27 1015.41 1015.42 1015.39 1015.43 1015.40 1015.54 1015.76 1015.83 1015.79 1015.65 1015.59 1015.70 1015.84 1015.88 1016.01 1015.96 1016.04
1010.37 1011.02 1011.66 1012.11 1012.54 1012.88 1013.39 1013.70 1013.83 1013.91 1014.26 1014.48 1014.54 1014.79 1015.30 1015.57 1015.39 1015.63 1015.85 1015.97 1015.76 1015.52 1015.40 1015.16 1015.28 1015.43 1015.45 1015.54 1015.30 1015.50 1015.50 1015.64 1015.73 1015.66 1015.64 1015.68 1015.70 1015.72 1015.89 1016.06 1016.24 1016.38 1016.55
1010.09 1011.06 1011.83 1012.16 1012.41 1012.81 1013.44 1014.00 1014.01 1013.97 1014.10 1014.05 1013.98 1014.05 1014.45 1014.60 1015.10 1015.58 1015.80 1015.77 1015.59 1015.34 1015.42 1015.40 1015.31 1015.47 1015.66 1015.78 1015.90 1015.79 1015.73 1015.73 1015.72 1015.60 1015.51 1015.44 1015.61 1015.66 1015.88 1016.18 1016.38 1016.68 1016.90
1009.58 1010.78 1011.69 1011.85 1012.03 1012.56 1013.05 1013.40 1013.78 1013.76 1013.74 1013.77 1013.74 1013.86 1013.87 1014.22 1015.03 1015.52 1015.80 1015.81 1015.66 1015.59 1015.48 1015.27 1015.28 1015.42 1015.62 1015.69 1015.70 1015.72 1015.77 1015.69 1015.57 1015.54 1015.47 1015.33 1015.44 1015.56 1015.75 1016.10 1016.46 1016.77 1017.11
1009.50 1010.43 1011.25 1011.35 1011.62 1012.19 1012.55 1012.91 1013.18 1013.58 1014.00 1014.11 1014.11 1014.16 1014.31 1014.70 1015.20 1015.63 1015.71 1015.73 1015.88 1015.73 1015.32 1015.08 1014.95 1015.18 1015.39 1015.37 1015.58 1015.58 1015.61 1015.67 1015.59 1015.50 1015.23 1015.21 1015.13 1015.32 1015.58 1015.89 1016.20 1016.51 1016.85
1009.45 1010.19 1010.78 1010.99 1011.14 1011.43 1011.82 1012.20 1012.40 1012.93 1013.19 1013.51 1014.04 1014.33 1014.53 1015.08 1015.49 1015.62 1015.47 1015.28 1015.26 1015.01 1014.77 1014.50 1014.46 1014.75 1014.82 1014.81 1015.15 1015.21 1015.23 1015.39 1015.38 1015.40 1015.20 1015.08 1015.04 1015.16 1015.38 1015.55 1015.82 1016.14 1016.45
1009.24 1009.85 1010.29 1010.51 1010.59 1010.72 1011.11 1011.51 1011.81 1012.28 1012.64 1012.90 1013.23 1013.42 1014.29 1014.92 1014.97 1014.73 1014.62 1014.71 1014.63 1014.37 1014.07 1013.91 1013.95 1014.12 1014.14 1014.42 1014.63 1014.86 1015.09 1015.24 1015.30 1015.18 1015.09 1014.78 1014.94 1015.16 1015.24 1015.36 1015.56 1015.85 1016.08
1008.78 1009.39 1009.69 1009.92 1010.11 1010.04 1010.40 1010.91 1011.03 1011.47 1011.87 1012.16 1012.20 1012.25 1012.67 1013.39 1013.65 1013.66 1013.75 1013.74 1013.67 1013.70 1013.52 1013.23 1013.53 1013.61 1013.61 1013.78 1014.00 1014.36 1014.52 1014.65 1014.83 1014.93 1014.91 1014.90 1014.87 1014.88 1014.99 1014.97 1015.17 1015.48 1015.78
1008.29 1008.91 1009.17 1009.31 1009.42 1009.63 1009.90 1009.95 1010.45 1010.88 1011.15 1011.49 1011.50 1011.62 1012.12 1012.71 1012.93 1012.93 1012.86 1012.75 1012.60 1012.62 1012.66 1012.58 1012.96 1013.03 1013.02 1013.14 1013.39 1013.76 1013.99 1014.11 1014.21 1014.37 1014.42 1014.53 1014.62 1014.70 1014.75 1014.77 1014.93 1015.17 1015.46
1007.83 1008.43 1008.74 1008.93 1009.06 1009.24 1009.56 1009.78 1009.99 1010.10 1010.48 1010.72 1010.85 1011.03 1011.65 1011.90 1012.09 1012.19 1012.07 1011.69 1011.68 1011.74 1011.84 1012.06 1012.31 1012.37 1012.29 1012.27 1012.44 1012.78 1013.21 1013.32 1013.39 1013.68 1013.89 1014.07 1014.21 1014.33 1014.26 1014.48 1014.59 1014.82 1015.10
1007.34 1008.01 1008.40 1008.50 1008.65 1008.97 1009.06 1009.20 1009.53 1009.71 1009.72 1009.95 1010.32 1010.51 1010.73 1010.90 1011.27 1011.49 1011.50 1011.37 1011.32 1011.10 1011.14 1011.30 1011.46 1011.58 1011.79 1011.75 1011.97 1012.08 1012.24 1012.42 1012.68 1012.98 1013.19 1013.56 1013.79 1013.94 1014.13 1014.21 1014.29 1014.42 1014.59
1006.82 1007.48 1007.89 1008.15 1008.38 1008.65 1009.01 1009.34 1009.59 1009.54 1009.61 1009.55 1009.72 1009.90 1010.15 1010.35 1010.72 1010.71 1010.67 1010.59 1010.93 1010.93 1010.82 1010.79 1010.74 1010.90 1011.13 1011.25 1011.40 1011.43 1011.64 1012.00 1012.10 1012.23 1012.58 1012.98 1013.32 1013.53 1013.80 1013.87 1013.84 1014.03 1014.16
1006.43 1006.92 1007.21 1007.60 1008.05 1008.42 1008.75 1008.97 1009.07 1009.09 1009.05 1009.18 1009.37 1009.60 1009.74 1009.91 1010.07 1010.01 1010.04 1010.27 1010.60 1010.56 1010.52 1010.55 1010.48 1010.48 1010.59 1010.75 1010.76 1010.82 1011.31 1011.52 1011.69 1011.94 1012.08 1012.51 1012.95 1013.24 1013.39 1013.42 1013.44 1013.52 1013.56
Wind_Speed
7 6 7 7 7 6 6 5 2 3 4 5 5 5 1 2 1 0 1 4 5 4 4 4 3 2 2 2 2 2 1 2 2 3 2 3 3 4 6 7 7 6 5
7 8 8 6 6 6 6 6 5 6 5 8 5 6 3 3 3 2 4 4 4 5 5 5 4 2 4 3 2 4 3 1 1 2 2 3 4 3 4 5 7 5 4
8 5 6 7 7 7 7 7 7 6 6 7 6 6 4 0 4 5 3 3 2 3 4 4 4 3 4 3 4 4 3 3 2 1 3 2 2 3 2 3 4 5 5
8 6 6 8 9 9 7 7 6 6 6 6 6 6 6 5 5 3 3 5 4 5 5 5 5 5 4 3 4 3 3 3 3 2 2 2 2 2 2 2 3 2 5
6 4 5 7 8 5 4 6 6 6 8 6 8 7 6 5 3 3 4 5 5 6 6 5 5 7 8 5 2 3 3 2 3 3 3 3 4 3 4 3 3 4 2
1 5 4 6 7 7 6 9 10 8 6 8 7 7 6 3 2 6 6 5 4 6 5 5 5 8 7 7 7 4 3 2 2 2 2 4 6 4 4 3 3 3 3
6 7 6 10 10 9 8 8 9 8 7 7 6 7 5 3 3 7 7 4 5 5 4 3 3 4 6 5 7 8 6 5 5 3 3 2 3 3 4 6 3 3 2
5 6 10 9 11 9 9 9 8 6 8 6 6 6 4 1 4 6 5 5 5 4 3 3 4 5 7 6 5 7 6 5 4 3 4 1 2 3 3 3 3 3 2
7 7 7 8 9 9 10 10 6 8 6 5 5 6 5 2 2 3 4 5 4 5 4 4 4 5 8 9 6 6 5 5 2 4 4 2 4 7 7 3 5 4 2
7 6 7 7 10 10 10 9 4 5 5 5 5 5 6 4 2 2 4 4 4 2 1 2 4 5 6 8 6 4 5 2 1 1 2 1 3 6 9 5 3 4 2
7 7 8 10 11 10 8 6 6 6 6 5 5 4 4 3 2 2 8 4 4 3 2 2 2 3 2 4 3 3 2 3 1 1 2 3 3 4 4 4 5 5 5
8 9 9 9 9 8 10 5 6 6 6 5 5 2 1 2 3 4 6 4 5 5 3 2 2 3 3 3 3 3 5 2 2 2 2 2 1 3 3 4 5 5 5
9 10 9 8 7 7 8 7 6 5 5 4 4 3 2 2 2 2 3 7 6 3 2 3 6 6 3 3 4 2 3 2 2 2 1 1 0 2 4 3 3 5 6
10 9 7 8 6 6 5 5 5 5 4 4 4 4 3 3 3 2 1 1 2 2 4 3 4 3 4 4 2 0 2 3 2 2 1 1 0 2 2 1 1 1 4
10 8 6 6 7 6 4 3 3 2 3 6 6 5 5 5 5 4 3 3 2 2 3 0 2 3 3 3 1 1 3 2 1 1 1 1 1 1 2 2 2 3 4
10 7 7 7 5 4 5 3 5 5 2 5 9 8 4 4 10 9 8 7 5 2 1 1 2 2 1 1 0 0 1 1 1 1 0 2 1 1 2 2 2 3 4
11 9 7 7 6 5 4 5 5 1 5 5 6 3 7 11 11 10 7 6 4 0 2 2 2 2 3 2 3 2 2 2 1 1 1 1 1 1 3 2 2 2 2
9 11 7 6 5 5 6 5 4 5 5 3 1 1 2 7 8 9 9 7 1 1 2 3 4 2 3 3 3 3 2 2 2 3 2 2 2 2 2 2 3 3 3
8 7 6 5 5 6 6 6 5 5 5 4 2 1 4 6 6 6 3 2 3 2 2 4 4 3 5 4 4 4 3 3 3 2 2 2 2 1 1 3 3 4 4
8 9 7 6 6 7 5 6 5 5 5 5 5 5 5 4 4 5 4 3 4 4 3 4 3 4 5 5 5 4 4 3 3 3 3 3 3 2 2 3 4 3 3
6 5 7 5 5 5 6 6 7 6 7 6 7 5 11 6 6 5 5 5 6 5 5 4 5 5 5 5 5 5 5 5 4 4 4 3 2 2 2 3 3 3 4
6 5 5 5 4 4 4 5 5 6 7 7 6 5 11 5 4 5 5 5 6 6 5 5 5 5 6 6 6 5 5 5 5 5 4 4 3 3 3 2 2 3 4
7 6 5 4 4 4 4 5 5 6 6 7 6 4 5 6 6 5 5 6 5 6 5 5 5 5 5 5 5 6 6 7 6 5 5 5 4 5 4 3 3 3 3
7 6 6 5 5 4 2 1 1 4 6 6 5 5 5 5 5 6 6 6 5 5 5 6 6 8 7 6 5 6 5 5 5 6 7 5 5 5 3 3 4 5 4
6 5 5 6 5 5 4 3 4 3 4 3 4 3 3 3 4 6 5 4 4 5 6 7 6 7 10 9 8 9 8 12 8 7 5 6 6 7 4 3 4 4 4
6 5 5 5 5 5 5 5 3 1 1 3 4 4 5 5 4 4 4 5 5 5 5 4 6 11 10 9 10 11 13 13 9 10 5 5 6 5 4 5 6 4 4
Wind_Direction
162 178 188 199 195 197 198 204 240 181 169 159 191 193 208 2 302 47 357 35 23 3 0 12 355 9 8 23 22 314 192 161 222 301 270 259 262 197 228 248 262 271 274
159 180 192 177 192 197 210 213 208 194 156 180 136 122 136 275 317 24 40 15 5 359 342 357 354 11 32 39 44 12 10 106 190 288 279 311 262 266 215 241 259 259 271
167 157 175 183 183 205 202 205 207 177 128 127 131 136 134 292 66 50 44 350 333 17 12 20 358 34 55 23 30 38 19 17 30 356 327 312 318 355 333 289 283 283 279
157 166 161 186 198 201 199 203 180 147 144 131 120 110 99 75 50 32 12 8 39 41 32 34 55 51 60 48 53 48 46 37 26 34 2 346 344 345 344 315 327 301 286
145 164 213 195 194 171 146 164 124 119 141 116 104 92 83 72 45 58 42 40 54 61 60 60 45 43 45 43 57 18 38 21 37 29 30 25 13 350 353 318 301 307 297
48 224 221 156 133 115 118 121 130 121 101 106 98 102 92 77 83 53 55 74 69 64 61 41 40 34 28 30 8 356 172 112 74 57 24 39 14 4 336 318 313 323 342
202 162 144 135 122 123 122 121 122 115 120 112 111 108 116 129 50 48 54 66 76 64 69 54 37 26 24 19 14 58 66 59 82 114 95 49 2 337 310 350 329 319 42
165 127 123 125 123 136 137 129 116 131 127 126 120 125 132 117 41 42 119 94 83 72 58 59 59 34 25 12 55 56 58 52 108 107 112 141 339 7 8 312 293 297 189
151 150 133 136 128 130 127 126 134 126 123 126 140 153 135 113 16 23 124 118 91 65 37 35 60 57 31 24 66 70 54 34 63 123 141 170 47 45 38 359 11 26 337
159 155 137 141 132 130 132 131 121 127 128 131 149 145 150 148 227 301 151 145 138 138 348 357 48 66 52 46 65 51 59 354 307 259 355 246 43 50 42 37 5 33 337
121 123 124 133 125 131 122 120 125 122 121 143 135 142 143 160 167 98 116 151 170 166 214 262 255 214 132 101 103 56 328 303 109 103 41 46 62 73 51 32 25 42 26
121 124 124 116 131 133 124 128 132 128 138 147 141 145 195 166 164 131 114 135 146 158 207 225 233 231 300 346 336 5 11 56 113 69 53 25 52 99 84 65 48 44 33
126 122 123 120 129 130 133 142 136 148 157 162 160 169 194 235 222 194 158 121 108 135 207 234 230 227 254 328 346 327 108 104 111 68 29 343 283 155 130 76 46 63 37
129 136 134 133 130 137 137 150 149 159 167 170 185 195 204 233 250 236 230 24 49 66 349 321 275 271 252 237 311 89 147 141 159 163 206 267 19 124 152 138 23 358 53
141 137 138 145 162 156 114 167 178 173 191 186 202 189 178 217 228 166 168 172 170 216 299 336 34 35 7 337 151 119 79 80 124 188 86 34 41 74 73 107 87 45 69
144 141 165 173 172 156 150 146 75 69 10 256 242 189 209 247 122 127 130 145 173 207 62 345 248 144 80 62 221 134 46 18 129 137 154 133 127 124 132 105 82 86 97
152 154 180 184 181 162 162 169 163 359 23 7 16 158 166 153 142 145 157 164 217 155 195 236 250 189 167 138 171 179 199 226 212 178 136 74 111 103 135 129 125 116 104
159 159 181 195 175 168 176 174 160 170 163 221 209 12 13 140 151 156 173 160 149 208 223 220 230 203 191 173 188 174 173 199 206 228 181 174 164 152 161 155 171 158 154
164 172 185 195 198 194 182 176 187 179 176 182 161 278 129 120 148 179 211 206 209 245 219 226 216 195 202 184 186 198 183 196 196 200 206 200 138 122 52 136 168 166 147
169 167 183 199 213 215 181 169 186 178 193 197 201 203 142 141 211 213 203 181 218 246 256 250 197 203 195 182 196 184 195 218 236 218 242 175 163 159 182 181 192 158 188
171 170 200 171 183 180 165 185 194 184 198 206 218 197 177 178 210 222 207 211 217 213 241 206 191 206 198 192 195 187 209 203 217 224 217 226 234 162 190 198 179 187 162
160 174 190 189 175 141 177 172 181 198 199 200 221 209 173 203 221 230 234 226 220 208 210 198 195 198 204 192 197 194 205 206 207 215 209 205 200 200 176 189 167 171 183
164 174 193 189 176 160 142 164 182 197 188 207 218 194 173 207 219 224 240 254 209 208 200 182 196 202 215 211 190 190 195 205 201 186 192 192 201 200 205 179 200 177 187
163 172 190 202 174 170 156 64 182 184 178 181 188 195 198 203 201 215 231 262 231 218 188 187 200 203 205 212 199 205 204 196 182 194 186 183 195 211 198 194 192 206 192
162 172 180 187 185 177 163 171 191 183 159 191 204 201 208 222 216 228 232 206 231 218 210 206 205 208 214 207 206 197 192 184 187 190 176 183 197 196 200 211 200 198 215
164 179 188 168 167 169 159 168 140 132 117 169 166 191 201 195 246 214 213 192 202 213 206 204 212 221 211 208 209 183 179 192 185 196 174 176 189 201 199 209 225 224 217